Starlink 1448

operational
NORAD ID: 45665 Int'l Des: 2020-035 Owner: SPXS Country: US Constellation: starlink
LEOCIRCULARSTARLINK_TYPE

关于 Starlink 1448

正在加载描述...

实时位置

正在加载3D地球...

即将过境

高度历史

Altitude vs Time

uPlot chart will show altitude changes over time

两行轨道根数

1 45665U 20035J 26036.91670139 .00219986 00000-0 43252-2 0 9992
2 45665 53.0535 204.9689 0002093 339.8191 71.5605 15.45974031 5788
Epoch: Feb 5, 2026 • Age: 4 hours

当前状态

高度 444.5 km
速度 7.65 km/s
星下点 -47.03°S, 87.76°W
发射日期 Jun 4, 2020
运行时间 5.6 years
类型 internet

技术详情

分类 Payload
质量 260.00 kg
干质量 248.00 kg
总质量 260.00 kg
长度 0.20 m
直径 2.80 m
跨度 9.00 m
形状 Box + pan
制造商 SPXS
平台类型 Starlink
阶段状态 In Orbit
所有者/国家 SPXS/US

大型星座

Loading constellations...